CAPE
nan nan nan nan nan nan nan nan nan nan nan nan nan nan nan nan nan nan nan nan nan nan nan nan nan nan nan 7 10 10 10 11 15 15 15 12 9 9 4 2 2 0 nan nan nan nan nan nan nan nan nan nan nan nan nan nan nan nan 0 1 1 1 1 1 1 0 nan nan nan nan nan nan nan nan nan nan nan nan nan nan nan 0 2 4 4 7
nan nan nan nan nan nan nan nan nan nan nan nan nan nan nan nan nan nan nan nan nan nan nan nan nan nan nan nan 10 10 13 15 17 17 15 13 9 9 6 2 2 1 nan nan nan nan nan nan nan nan nan nan nan nan nan nan nan nan nan 0 0 0 0 0 0 nan nan nan nan nan nan nan nan nan nan nan nan nan nan nan nan 1 2 4 4 6
nan nan nan nan nan nan nan nan nan nan nan nan nan nan nan nan nan nan nan nan nan nan nan nan nan nan nan nan 9 9 17 17 16 16 13 11 9 9 6 4 4 2 1 1 1 1 0 0 0 nan nan nan nan nan nan nan nan nan nan nan nan nan nan nan nan nan nan nan nan nan nan nan nan nan nan nan nan nan nan nan nan nan 0 1 1 3
nan nan nan nan nan nan nan nan nan nan nan nan nan nan nan nan nan nan nan nan nan nan nan nan nan nan nan nan 2 2 16 16 15 15 13 10 8 8 5 4 4 3 3 2 2 2 2 2 2 2 0 nan nan nan nan nan nan nan nan nan nan nan nan nan nan nan nan nan nan nan nan nan nan nan nan nan nan nan nan nan nan nan nan 0 0 1
nan nan nan nan nan nan nan nan nan nan nan nan nan nan nan nan nan nan nan nan nan nan nan nan nan nan nan nan nan nan 8 13 10 10 10 10 8 8 6 5 5 4 3 3 3 3 3 3 3 3 3 2 1 1 nan nan nan nan nan nan nan nan nan nan nan nan nan nan nan nan nan nan nan nan nan nan nan nan nan nan nan nan nan nan nan 0
nan nan nan nan nan nan nan nan nan nan nan nan nan nan nan nan nan nan nan nan nan nan nan nan nan nan nan nan nan nan 1 8 6 6 6 8 7 7 7 6 6 6 5 4 4 4 4 4 4 4 5 6 3 3 1 nan nan nan nan nan nan nan nan nan nan nan nan nan nan nan nan nan nan nan nan nan nan nan nan nan nan nan nan nan nan 0
nan nan nan nan nan nan nan nan nan nan nan nan nan nan nan nan nan nan nan nan nan nan nan nan nan nan nan nan nan nan nan nan 1 1 1 4 6 6 6 6 6 5 4 4 4 4 4 6 6 7 7 7 4 4 2 nan nan nan nan nan nan nan nan nan nan nan nan nan nan nan nan nan nan nan nan nan nan nan nan nan nan nan nan nan nan 0
nan nan nan nan nan nan nan nan nan nan nan nan nan nan nan nan nan nan nan nan nan nan nan nan nan nan nan nan nan nan nan nan nan nan nan nan nan nan nan 2 2 3 2 2 2 3 4 4 4 3 4 3 2 2 0 nan nan nan nan nan nan nan nan nan nan nan nan nan nan nan nan nan nan nan nan nan nan nan nan nan nan nan nan 0 0 1
nan nan nan nan nan nan nan nan nan nan nan nan nan nan nan nan nan nan nan nan nan nan nan nan nan nan nan nan nan nan nan nan nan nan nan nan nan nan nan nan nan 0 1 1 1 1 1 1 1 2 1 1 0 0 nan nan nan nan nan nan nan nan nan nan nan nan nan nan nan nan nan nan nan nan nan nan nan nan nan nan nan nan nan 0 0 2
nan nan nan nan nan nan nan nan nan nan nan nan nan nan nan nan nan nan nan nan nan nan nan nan nan nan nan nan nan nan nan nan nan nan nan nan nan nan nan nan nan nan nan nan nan nan nan nan nan nan nan nan nan nan nan nan nan nan nan nan nan nan nan nan nan nan nan nan nan nan nan nan nan nan nan nan nan nan nan nan nan nan nan 0 0 1
nan nan nan nan nan nan nan nan nan nan nan nan nan nan nan nan nan nan nan nan nan nan nan nan nan nan nan nan nan nan nan nan nan nan nan nan nan nan nan nan nan nan nan nan nan nan nan nan nan nan nan nan nan nan nan nan nan nan nan nan nan nan nan nan nan nan nan nan nan nan nan nan nan nan nan nan nan nan nan nan nan nan nan nan nan 1
nan nan nan nan nan nan nan nan nan nan nan nan nan nan nan nan nan nan nan nan nan nan nan nan nan nan nan nan nan nan nan nan nan nan nan nan 0 0 nan nan nan nan nan nan nan nan nan nan nan nan nan nan nan nan nan nan nan nan nan nan nan nan nan nan nan nan nan nan nan nan nan nan nan nan nan nan nan nan nan nan nan nan nan 0 0 0
nan nan nan nan nan nan nan nan nan nan nan nan nan nan nan nan nan nan nan nan nan nan nan nan nan nan nan nan nan nan nan nan nan nan nan nan nan nan nan nan nan nan nan nan nan nan nan nan nan nan nan nan nan nan nan nan nan nan nan nan nan nan nan nan nan nan nan nan nan nan nan nan nan nan nan nan nan nan nan nan nan nan nan 0 0 0
nan nan nan nan nan nan nan nan nan nan nan nan nan nan nan nan nan nan nan nan nan nan nan nan nan nan nan nan nan nan nan nan nan nan nan nan nan nan nan nan nan nan nan nan nan nan nan nan nan nan nan nan nan nan nan nan nan nan nan nan nan nan nan nan nan nan nan nan nan nan nan 0 nan nan nan nan nan nan nan nan nan nan 0 0 0 1
nan nan nan nan nan nan nan nan nan nan nan nan nan nan nan nan nan nan nan nan nan nan nan nan nan nan nan nan nan nan nan nan nan nan nan nan nan nan nan nan nan nan nan nan nan nan nan nan nan nan nan nan nan nan nan nan nan nan nan nan nan nan nan nan nan nan nan nan nan nan 1 1 0 0 nan nan nan nan nan nan nan 0 1 1 1 1
nan nan nan nan nan nan nan nan nan nan nan nan nan nan nan nan nan nan nan nan nan nan nan nan nan nan nan nan nan nan nan nan nan nan nan nan nan nan nan nan nan nan nan nan nan nan nan nan nan nan nan nan nan nan nan nan nan nan nan nan nan nan nan nan nan nan nan nan 0 0 1 1 1 1 0 0 nan nan nan nan nan 0 1 2 2 2
nan nan nan nan nan nan nan nan nan nan nan nan nan nan nan nan nan nan nan nan nan nan nan nan nan nan nan nan nan nan nan nan nan nan nan nan nan nan nan nan nan nan nan nan nan nan nan nan nan nan nan nan nan nan nan nan nan nan nan nan nan nan nan nan nan nan nan nan 1 1 1 1 1 1 1 0 0 0 nan 0 0 0 2 3 3 4
nan nan nan nan nan nan nan nan nan nan nan nan nan nan nan nan nan nan nan nan nan nan nan nan nan nan nan nan nan nan nan nan nan nan nan nan nan nan nan nan nan nan nan nan nan nan nan nan nan nan nan nan nan nan nan nan nan nan nan nan nan nan nan nan nan nan nan 0 1 1 2 2 2 2 2 1 0 0 0 1 1 1 3 4 4 5
nan nan nan nan nan nan nan nan nan nan nan nan nan nan nan nan nan nan nan nan nan nan nan nan nan nan nan nan nan nan nan nan nan nan nan nan nan nan nan nan nan nan nan nan nan nan nan nan nan nan nan nan nan nan nan nan nan nan nan nan nan nan nan 0 0 0 nan 0 1 1 2 3 3 3 2 3 2 2 2 2 2 3 5 5 5 6
nan nan nan nan nan nan nan nan nan nan nan nan nan nan nan nan nan nan nan nan nan nan nan nan nan nan nan nan nan nan nan nan nan nan nan nan nan nan nan nan nan nan nan nan nan nan nan nan nan nan nan nan nan nan nan nan nan nan nan nan nan nan 0 1 1 0 0 0 1 1 2 3 3 3 3 3 4 4 4 5 5 5 7 8 8 8
nan nan nan nan nan nan nan nan nan nan nan nan nan nan nan nan nan nan nan nan nan nan nan nan nan nan nan nan nan nan nan nan nan nan nan nan nan nan nan nan nan nan nan nan nan nan nan nan nan nan nan nan nan nan nan nan nan nan nan nan nan 0 1 1 1 0 0 0 1 1 2 3 4 4 4 4 5 5 6 7 7 8 9 9 9 9
nan nan nan nan nan nan nan nan nan nan nan nan nan nan nan nan nan nan nan nan nan nan nan nan nan nan nan nan nan nan nan nan nan nan nan nan nan nan nan nan nan nan nan nan nan nan nan nan nan nan nan nan nan nan nan nan nan nan nan nan nan 0 0 0 0 nan 0 0 0 0 1 3 4 4 4 4 5 5 5 7 7 8 10 9 9 10
nan nan nan nan nan nan nan nan nan nan nan nan nan nan nan nan nan nan nan nan nan nan nan nan nan nan nan nan nan nan nan nan nan nan nan nan nan nan nan nan nan nan nan nan nan nan nan nan nan nan nan nan nan nan nan nan nan nan nan nan nan 0 nan nan nan nan nan 0 0 0 0 2 3 3 4 4 5 5 5 6 6 6 8 9 9 9
nan nan nan nan nan nan nan nan nan nan nan nan nan nan nan nan nan nan nan nan nan nan nan nan nan nan nan nan nan nan nan nan nan nan nan nan nan nan nan nan nan nan nan nan nan nan nan nan nan nan nan nan nan nan nan nan nan nan nan nan nan nan nan nan nan nan nan nan 0 0 0 1 3 3 3 4 5 5 5 5 5 5 7 8 8 8
nan nan nan nan nan nan nan nan nan nan nan nan nan nan nan nan nan nan nan nan nan nan nan nan nan nan nan nan nan nan nan nan nan nan nan nan nan nan nan nan nan nan nan nan nan nan nan nan nan nan nan nan nan nan nan nan nan nan nan nan nan nan nan nan nan 0 0 0 0 0 1 2 3 3 4 4 6 6 6 6 6 6 7 7 7 8
nan nan nan nan nan nan nan nan nan nan nan nan nan nan nan nan nan nan nan nan nan nan nan nan nan nan nan nan nan nan nan nan nan nan nan nan nan nan nan nan nan nan nan nan nan nan nan nan nan nan nan nan nan nan nan nan nan nan nan nan nan nan nan 0 0 1 0 0 1 1 2 3 3 3 5 5 5 5 6 7 7 7 7 8 8 8
nan nan nan nan nan nan nan nan nan nan nan nan nan nan nan nan nan nan nan nan nan nan nan nan nan nan nan nan nan nan nan nan nan nan nan nan nan nan nan nan nan nan nan nan nan nan nan nan nan nan nan nan nan nan nan nan nan nan nan nan nan nan 0 1 1 1 1 1 1 1 1 2 2 2 3 3 4 4 5 5 5 6 6 7 7 6
nan nan nan nan nan nan nan nan nan nan nan nan nan nan nan nan nan nan nan nan nan nan nan nan nan nan nan nan nan nan nan nan nan nan nan nan nan nan nan nan nan nan nan nan nan nan nan nan nan nan nan nan nan nan nan nan nan nan nan nan nan nan nan 0 0 0 0 0 0 0 0 0 0 0 0 1 1 1 2 3 3 4 4 nan nan nan
nan nan nan nan nan nan nan nan nan nan nan nan nan nan nan nan nan nan nan nan nan nan nan nan nan nan nan nan nan nan nan nan nan nan nan nan nan nan nan nan nan nan nan nan nan nan nan nan nan nan nan nan nan nan nan nan nan nan nan nan nan nan nan nan nan nan nan nan nan nan nan 0 0 0 0 0 0 0 0 1 1 2 nan nan nan nan
nan nan nan nan nan nan nan nan 0 0 0 nan nan nan nan nan nan nan nan nan nan nan nan nan nan nan nan nan nan nan nan nan nan nan nan nan nan nan nan nan nan nan nan nan nan nan nan nan nan nan nan nan nan nan nan nan nan nan nan nan nan nan nan nan nan nan nan nan nan nan 0 0 0 0 0 0 0 0 0 1 1 nan nan nan nan nan
nan nan nan nan nan nan nan nan nan nan 2 2 nan nan nan nan nan nan nan nan nan nan nan nan nan nan nan nan nan nan nan nan nan nan nan nan nan nan nan nan nan nan nan nan nan nan nan nan nan nan nan nan nan nan nan nan nan nan nan nan nan nan nan nan nan nan nan nan nan nan nan nan nan nan 0 0 0 0 0 1 1 nan nan nan nan nan
nan nan nan nan nan nan nan nan nan nan nan nan nan nan nan nan nan nan nan nan nan nan nan nan nan nan nan nan nan nan nan nan nan nan nan nan nan nan nan nan nan nan nan nan nan nan nan nan nan nan nan nan nan nan nan nan nan nan nan nan nan nan nan nan nan nan nan nan nan nan nan nan nan nan nan nan nan nan nan nan nan 0 nan nan nan nan
nan nan nan nan nan nan nan nan nan nan nan nan nan nan nan nan nan nan nan nan nan nan nan nan nan nan nan nan nan nan nan nan nan nan nan nan nan nan nan nan nan nan nan nan nan nan nan nan nan nan nan nan nan nan nan nan nan nan nan nan nan nan nan nan nan nan nan nan nan nan nan nan nan nan nan nan nan nan nan nan nan nan nan nan nan nan
nan nan nan nan nan nan nan nan nan nan nan nan nan nan nan nan nan nan nan nan nan nan nan nan nan nan nan nan nan nan nan nan nan nan nan nan nan nan nan nan nan nan nan nan nan nan nan nan nan nan nan nan nan nan nan nan nan nan nan nan nan nan nan nan nan nan nan nan nan nan nan nan nan nan nan nan nan nan nan nan nan nan 0 nan nan nan
nan nan nan nan nan nan nan nan nan nan nan nan nan nan nan nan nan nan nan nan nan nan nan nan nan nan nan nan nan nan nan nan nan nan 0 nan nan nan nan nan nan nan nan nan nan nan nan nan nan nan nan nan nan nan nan nan nan nan nan nan nan nan nan nan nan nan nan nan nan nan nan nan nan nan nan nan nan nan nan nan nan nan 0 1 1 nan
nan nan nan nan nan nan nan nan nan nan nan nan nan nan nan nan nan nan nan nan nan nan nan nan nan nan nan nan nan nan nan nan nan nan nan nan nan nan nan nan nan nan nan nan nan nan nan nan nan nan nan nan nan nan nan nan nan nan nan nan nan nan nan nan nan nan nan nan nan nan nan nan nan nan nan nan nan nan nan nan nan nan 0 1 1 nan
nan nan nan nan nan nan nan nan nan nan nan nan nan nan nan nan nan nan nan nan nan nan nan nan nan nan nan nan nan nan nan nan nan nan nan nan nan nan nan nan nan nan nan nan nan nan nan nan nan nan nan nan nan nan nan nan nan nan nan nan nan nan nan nan nan nan nan nan nan nan nan nan nan nan nan nan nan nan nan nan nan nan nan 0 0 nan
nan nan nan nan nan nan nan nan nan nan nan nan nan nan nan nan nan nan nan nan nan nan nan nan nan nan nan nan nan nan nan nan nan nan nan nan nan nan nan nan nan nan nan nan nan nan nan nan nan nan nan nan nan nan nan nan nan nan nan nan nan nan nan nan nan nan nan nan nan nan nan nan nan nan nan nan nan nan nan nan nan nan nan nan nan nan
nan nan nan nan nan nan nan nan nan nan nan nan nan nan nan nan nan nan nan nan nan nan nan nan nan nan nan nan nan nan nan nan nan nan nan nan nan nan nan nan nan nan nan nan nan nan nan nan nan nan nan nan nan nan nan nan nan nan nan nan nan nan nan nan nan nan nan nan nan nan nan nan nan nan nan nan nan nan nan nan nan nan nan nan nan nan
nan nan nan nan nan nan nan nan nan nan nan nan nan nan nan nan nan nan nan nan nan nan nan nan nan nan nan nan nan nan nan nan nan nan nan nan nan nan nan nan nan nan nan nan nan nan nan nan nan nan nan nan nan nan nan nan nan nan nan nan nan nan nan nan nan nan nan nan nan nan nan nan nan nan nan nan nan nan nan nan nan nan nan nan nan nan
nan nan nan nan nan nan nan nan nan nan nan nan nan nan nan nan nan nan nan nan nan nan nan nan nan nan nan nan nan nan nan nan nan nan nan nan nan nan nan nan nan nan nan nan nan nan nan nan nan nan nan nan nan nan nan nan nan nan nan nan nan nan nan nan nan nan nan nan nan nan nan nan nan nan nan nan nan nan nan nan nan nan nan nan nan nan
nan nan nan nan nan nan nan nan nan nan nan nan nan nan nan nan nan nan nan nan nan nan nan nan nan nan nan nan nan nan nan nan nan nan nan nan nan nan nan nan nan nan nan nan nan nan nan nan nan nan nan nan nan nan nan nan nan nan nan nan nan nan nan nan nan nan nan nan nan nan nan nan nan nan nan nan nan nan nan nan nan nan nan nan nan nan
nan nan nan nan nan nan nan nan nan nan nan nan nan nan nan nan nan nan nan nan nan nan nan nan nan nan nan nan nan nan nan nan nan nan nan nan nan nan nan nan nan nan nan nan nan nan nan nan nan nan nan nan nan nan nan nan nan nan nan nan nan nan nan nan nan nan nan nan nan nan nan nan nan nan nan nan nan nan nan nan nan nan nan nan nan nan
nan nan nan nan nan nan nan nan nan nan nan nan nan nan nan nan nan nan nan nan nan nan nan nan nan nan nan nan nan nan nan nan nan nan nan nan nan nan nan nan nan nan nan nan nan nan nan nan nan nan nan nan nan nan nan nan nan nan nan nan nan nan nan nan nan nan nan nan nan nan nan nan nan nan nan nan nan nan nan nan nan nan nan nan nan nan
nan nan nan nan nan nan nan nan nan nan nan nan nan nan nan nan nan nan nan nan nan nan nan nan nan nan nan nan nan nan nan nan nan nan nan nan nan nan nan nan nan nan nan nan nan nan nan nan nan nan nan nan nan nan nan nan nan nan nan nan nan nan nan nan nan nan nan nan nan nan nan nan nan nan nan nan nan nan nan nan nan nan nan nan nan nan
nan nan nan nan nan nan nan nan nan nan nan nan nan nan nan nan nan nan nan nan nan nan nan nan nan nan nan nan nan nan nan nan nan nan nan nan nan nan nan nan nan nan nan nan nan nan nan nan nan nan nan nan nan nan nan nan nan nan nan nan nan nan nan nan nan nan nan nan nan nan nan nan nan nan nan nan nan nan nan nan nan nan nan nan nan nan
nan nan nan nan nan nan nan nan nan nan nan nan nan nan nan nan nan nan nan nan nan nan nan nan nan nan nan nan nan nan nan nan nan nan nan nan nan nan nan nan nan nan nan nan nan nan nan nan nan nan nan nan nan nan nan nan nan nan nan nan nan nan nan nan nan nan nan nan nan nan nan nan nan nan nan nan nan nan nan nan nan nan nan nan nan nan
nan nan nan nan nan nan nan nan nan nan nan nan nan nan nan nan nan nan nan nan nan nan nan nan nan nan nan nan nan nan nan nan nan nan nan nan nan nan nan nan nan nan nan nan nan nan nan nan nan nan nan nan nan nan nan nan nan nan nan nan nan nan nan nan nan nan nan nan nan nan nan nan nan nan nan nan nan nan nan nan nan nan nan nan nan nan
nan nan nan nan nan nan nan nan nan nan nan nan nan nan nan nan nan nan nan nan nan nan nan nan nan nan nan nan nan nan nan nan nan nan nan nan nan nan nan nan nan nan nan nan nan nan nan nan nan nan nan nan nan nan nan nan nan nan nan nan nan nan nan nan nan nan nan nan nan nan nan nan nan nan nan nan nan nan nan nan nan nan nan nan nan nan
nan nan nan nan nan nan nan nan nan nan nan nan nan nan nan nan nan nan nan nan nan nan nan nan nan nan nan nan nan nan nan nan nan nan nan nan nan nan nan nan nan 0 0 1 1 0 0 1 1 0 1 nan nan nan nan nan nan nan nan nan nan nan nan nan nan nan nan nan nan nan nan nan nan nan nan nan nan nan nan nan nan nan nan nan nan nan
nan nan nan nan nan nan nan nan nan nan nan nan nan nan nan nan nan nan nan nan nan nan nan nan nan nan nan nan nan nan nan nan nan nan nan nan nan nan nan nan nan 0 nan nan nan nan nan nan nan nan nan 10 0 0 nan nan nan nan nan nan nan nan nan nan nan nan nan nan nan nan nan nan nan nan nan nan nan nan nan nan nan nan nan nan nan nan
CIN
nan nan nan nan nan nan nan nan nan nan nan nan nan nan nan nan nan nan nan nan nan nan nan nan nan nan nan -1 -0 -0 -0 -0 -0 -0 -0 -0 -0 -0 -0 -0 -0 -0 nan nan nan nan nan nan nan nan nan nan nan nan nan nan nan nan -0 -0 -0 -0 -0 -0 -0 -0 nan nan nan nan nan nan nan nan nan nan nan nan nan nan nan -0 -0 -0 -0 -0
nan nan nan nan nan nan nan nan nan nan nan nan nan nan nan nan nan nan nan nan nan nan nan nan nan nan nan nan -0 -0 -0 -0 -0 -0 -0 -0 -0 -0 -0 -0 -0 -0 nan nan nan nan nan nan nan nan nan nan nan nan nan nan nan nan nan -0 -0 -0 -0 -0 -0 nan nan nan nan nan nan nan nan nan nan nan nan nan nan nan nan -0 -0 -0 -0 -0
nan nan nan nan nan nan nan nan nan nan nan nan nan nan nan nan nan nan nan nan nan nan nan nan nan nan nan nan -0 -0 -1 -0 -0 -0 -0 -0 -0 -0 -0 -0 -0 -0 -0 -0 -0 -0 -0 -0 -0 nan nan nan nan nan nan nan nan nan nan nan nan nan nan nan nan nan nan nan nan nan nan nan nan nan nan nan nan nan nan nan nan nan -0 -0 -0 -0
nan nan nan nan nan nan nan nan nan nan nan nan nan nan nan nan nan nan nan nan nan nan nan nan nan nan nan nan -11 -11 -0 -0 -0 -0 -0 -0 -0 -0 -0 -0 -0 -0 -0 -0 -0 -0 -0 -0 -0 -0 -0 nan nan nan nan nan nan nan nan nan nan nan nan nan nan nan nan nan nan nan nan nan nan nan nan nan nan nan nan nan nan nan nan -0 -0 -0
nan nan nan nan nan nan nan nan nan nan nan nan nan nan nan nan nan nan nan nan nan nan nan nan nan nan nan nan nan nan -3 -0 -0 -0 -0 -0 -0 -0 -0 -0 -0 -0 -0 -0 -0 -0 -0 -0 -0 -0 -0 -0 -0 -0 nan nan nan nan nan nan nan nan nan nan nan nan nan nan nan nan nan nan nan nan nan nan nan nan nan nan nan nan nan nan nan -0
nan nan nan nan nan nan nan nan nan nan nan nan nan nan nan nan nan nan nan nan nan nan nan nan nan nan nan nan nan nan -10 -0 -0 -0 -0 -0 -0 -0 -0 -0 -0 -0 -0 -0 -0 -0 -0 -0 -0 -0 -0 -0 -0 -0 -0 nan nan nan nan nan nan nan nan nan nan nan nan nan nan nan nan nan nan nan nan nan nan nan nan nan nan nan nan nan nan -0
nan nan nan nan nan nan nan nan nan nan nan nan nan nan nan nan nan nan nan nan nan nan nan nan nan nan nan nan nan nan nan nan -5 -5 -5 -1 -0 -0 -0 -0 -0 -0 -0 -0 -0 -0 -0 -0 -0 -0 -0 -0 -0 -0 -0 nan nan nan nan nan nan nan nan nan nan nan nan nan nan nan nan nan nan nan nan nan nan nan nan nan nan nan nan nan nan -0
nan nan nan nan nan nan nan nan nan nan nan nan nan nan nan nan nan nan nan nan nan nan nan nan nan nan nan nan nan nan nan nan nan nan nan nan nan nan nan -0 -0 -0 -0 -0 -0 -0 -0 -0 -0 -0 -0 -0 -0 -0 -0 nan nan nan nan nan nan nan nan nan nan nan nan nan nan nan nan nan nan nan nan nan nan nan nan nan nan nan nan -0 -0 -0
nan nan nan nan nan nan nan nan nan nan nan nan nan nan nan nan nan nan nan nan nan nan nan nan nan nan nan nan nan nan nan nan nan nan nan nan nan nan nan nan nan -12 -0 -0 -0 -0 -0 -0 -0 -0 -0 -0 -0 -0 nan nan nan nan nan nan nan nan nan nan nan nan nan nan nan nan nan nan nan nan nan nan nan nan nan nan nan nan nan -0 -0 -0
nan nan nan nan nan nan nan nan nan nan nan nan nan nan nan nan nan nan nan nan nan nan nan nan nan nan nan nan nan nan nan nan nan nan nan nan nan nan nan nan nan nan nan nan nan nan nan nan nan nan nan nan nan nan nan nan nan nan nan nan nan nan nan nan nan nan nan nan nan nan nan nan nan nan nan nan nan nan nan nan nan nan nan -0 -0 -0
nan nan nan nan nan nan nan nan nan nan nan nan nan nan nan nan nan nan nan nan nan nan nan nan nan nan nan nan nan nan nan nan nan nan nan nan nan nan nan nan nan nan nan nan nan nan nan nan nan nan nan nan nan nan nan nan nan nan nan nan nan nan nan nan nan nan nan nan nan nan nan nan nan nan nan nan nan nan nan nan nan nan nan nan nan -0
nan nan nan nan nan nan nan nan nan nan nan nan nan nan nan nan nan nan nan nan nan nan nan nan nan nan nan nan nan nan nan nan nan nan nan nan -0 -0 nan nan nan nan nan nan nan nan nan nan nan nan nan nan nan nan nan nan nan nan nan nan nan nan nan nan nan nan nan nan nan nan nan nan nan nan nan nan nan nan nan nan nan nan nan -0 -0 -0
nan nan nan nan nan nan nan nan nan nan nan nan nan nan nan nan nan nan nan nan nan nan nan nan nan nan nan nan nan nan nan nan nan nan nan nan nan nan nan nan nan nan nan nan nan nan nan nan nan nan nan nan nan nan nan nan nan nan nan nan nan nan nan nan nan nan nan nan nan nan nan nan nan nan nan nan nan nan nan nan nan nan nan -0 -0 -0
nan nan nan nan nan nan nan nan nan nan nan nan nan nan nan nan nan nan nan nan nan nan nan nan nan nan nan nan nan nan nan nan nan nan nan nan nan nan nan nan nan nan nan nan nan nan nan nan nan nan nan nan nan nan nan nan nan nan nan nan nan nan nan nan nan nan nan nan nan nan nan -0 nan nan nan nan nan nan nan nan nan nan -0 -0 -0 -0
nan nan nan nan nan nan nan nan nan nan nan nan nan nan nan nan nan nan nan nan nan nan nan nan nan nan nan nan nan nan nan nan nan nan nan nan nan nan nan nan nan nan nan nan nan nan nan nan nan nan nan nan nan nan nan nan nan nan nan nan nan nan nan nan nan nan nan nan nan nan -0 -0 -0 -0 nan nan nan nan nan nan nan -0 -0 -0 -0 -0
nan nan nan nan nan nan nan nan nan nan nan nan nan nan nan nan nan nan nan nan nan nan nan nan nan nan nan nan nan nan nan nan nan nan nan nan nan nan nan nan nan nan nan nan nan nan nan nan nan nan nan nan nan nan nan nan nan nan nan nan nan nan nan nan nan nan nan nan -0 -0 -0 -0 -0 -0 -0 -0 nan nan nan nan nan -0 -0 -0 -0 -0
nan nan nan nan nan nan nan nan nan nan nan nan nan nan nan nan nan nan nan nan nan nan nan nan nan nan nan nan nan nan nan nan nan nan nan nan nan nan nan nan nan nan nan nan nan nan nan nan nan nan nan nan nan nan nan nan nan nan nan nan nan nan nan nan nan nan nan nan -0 -0 -0 -0 -0 -0 -0 -0 -0 -0 nan -1 -1 -0 -0 -0 -0 -0
nan nan nan nan nan nan nan nan nan nan nan nan nan nan nan nan nan nan nan nan nan nan nan nan nan nan nan nan nan nan nan nan nan nan nan nan nan nan nan nan nan nan nan nan nan nan nan nan nan nan nan nan nan nan nan nan nan nan nan nan nan nan nan nan nan nan nan -0 -0 -0 -0 -0 -0 -0 -0 -0 -0 -0 -0 -0 -0 -0 -0 -0 -0 -0
nan nan nan nan nan nan nan nan nan nan nan nan nan nan nan nan nan nan nan nan nan nan nan nan nan nan nan nan nan nan nan nan nan nan nan nan nan nan nan nan nan nan nan nan nan nan nan nan nan nan nan nan nan nan nan nan nan nan nan nan nan nan nan -0 -0 -0 nan -0 -0 -0 -0 -0 -0 -0 -0 -0 -0 -0 -0 -0 -0 -0 -0 -0 -0 -0
nan nan nan nan nan nan nan nan nan nan nan nan nan nan nan nan nan nan nan nan nan nan nan nan nan nan nan nan nan nan nan nan nan nan nan nan nan nan nan nan nan nan nan nan nan nan nan nan nan nan nan nan nan nan nan nan nan nan nan nan nan nan -0 -0 -0 -0 -0 -0 -0 -0 -0 -0 -0 -0 -0 -0 -0 -0 -0 -0 -0 -0 -0 -0 -0 -0
nan nan nan nan nan nan nan nan nan nan nan nan nan nan nan nan nan nan nan nan nan nan nan nan nan nan nan nan nan nan nan nan nan nan nan nan nan nan nan nan nan nan nan nan nan nan nan nan nan nan nan nan nan nan nan nan nan nan nan nan nan -0 -0 -0 -0 -0 -0 -0 -0 -0 -0 -0 -0 -0 -0 -0 -0 -0 -0 -0 -0 -0 -0 -0 -0 -0
nan nan nan nan nan nan nan nan nan nan nan nan nan nan nan nan nan nan nan nan nan nan nan nan nan nan nan nan nan nan nan nan nan nan nan nan nan nan nan nan nan nan nan nan nan nan nan nan nan nan nan nan nan nan nan nan nan nan nan nan nan -0 -0 -0 -0 nan -0 -0 -0 -0 -0 -0 -0 -0 -0 -0 -0 -0 -0 -0 -0 -0 -0 -0 -0 -0
nan nan nan nan nan nan nan nan nan nan nan nan nan nan nan nan nan nan nan nan nan nan nan nan nan nan nan nan nan nan nan nan nan nan nan nan nan nan nan nan nan nan nan nan nan nan nan nan nan nan nan nan nan nan nan nan nan nan nan nan nan -0 nan nan nan nan nan -0 -0 -0 -0 -0 -0 -0 -0 -0 -0 -0 -0 -0 -0 -0 -0 -0 -0 -0
nan nan nan nan nan nan nan nan nan nan nan nan nan nan nan nan nan nan nan nan nan nan nan nan nan nan nan nan nan nan nan nan nan nan nan nan nan nan nan nan nan nan nan nan nan nan nan nan nan nan nan nan nan nan nan nan nan nan nan nan nan nan nan nan nan nan nan nan -0 -0 -0 -0 -0 -0 -0 -0 -0 -0 -0 -0 -0 -0 -0 -0 -0 -0
nan nan nan nan nan nan nan nan nan nan nan nan nan nan nan nan nan nan nan nan nan nan nan nan nan nan nan nan nan nan nan nan nan nan nan nan nan nan nan nan nan nan nan nan nan nan nan nan nan nan nan nan nan nan nan nan nan nan nan nan nan nan nan nan nan -0 -0 -0 -0 -0 -0 -0 -0 -0 -0 -0 -0 -0 -0 -0 -0 -0 -0 -0 -0 -0
nan nan nan nan nan nan nan nan nan nan nan nan nan nan nan nan nan nan nan nan nan nan nan nan nan nan nan nan nan nan nan nan nan nan nan nan nan nan nan nan nan nan nan nan nan nan nan nan nan nan nan nan nan nan nan nan nan nan nan nan nan nan nan -0 -0 -0 -0 -0 -0 -0 -0 -0 -0 -0 -0 -0 -0 -0 -0 -0 -0 -0 -0 -0 -0 -0
nan nan nan nan nan nan nan nan nan nan nan nan nan nan nan nan nan nan nan nan nan nan nan nan nan nan nan nan nan nan nan nan nan nan nan nan nan nan nan nan nan nan nan nan nan nan nan nan nan nan nan nan nan nan nan nan nan nan nan nan nan nan -0 -0 -0 -0 -0 -0 -0 -0 -0 -0 -0 -0 -0 -0 -0 -0 -0 -0 -0 -0 -0 -0 -0 -0
nan nan nan nan nan nan nan nan nan nan nan nan nan nan nan nan nan nan nan nan nan nan nan nan nan nan nan nan nan nan nan nan nan nan nan nan nan nan nan nan nan nan nan nan nan nan nan nan nan nan nan nan nan nan nan nan nan nan nan nan nan nan nan -0 -0 -0 -0 -0 -0 -0 -0 -0 -0 -0 -0 -0 -0 -0 -0 -0 -0 -0 -0 nan nan nan
nan nan nan nan nan nan nan nan nan nan nan nan nan nan nan nan nan nan nan nan nan nan nan nan nan nan nan nan nan nan nan nan nan nan nan nan nan nan nan nan nan nan nan nan nan nan nan nan nan nan nan nan nan nan nan nan nan nan nan nan nan nan nan nan nan nan nan nan nan nan nan -0 -0 -0 -0 -0 -0 -0 -0 -0 -0 -0 nan nan nan nan
nan nan nan nan nan nan nan nan -0 -0 -0 nan nan nan nan nan nan nan nan nan nan nan nan nan nan nan nan nan nan nan nan nan nan nan nan nan nan nan nan nan nan nan nan nan nan nan nan nan nan nan nan nan nan nan nan nan nan nan nan nan nan nan nan nan nan nan nan nan nan nan -0 -0 -0 -0 -0 -0 -0 -0 -0 -0 -0 nan nan nan nan nan
nan nan nan nan nan nan nan nan nan nan -0 -0 nan nan nan nan nan nan nan nan nan nan nan nan nan nan nan nan nan nan nan nan nan nan nan nan nan nan nan nan nan nan nan nan nan nan nan nan nan nan nan nan nan nan nan nan nan nan nan nan nan nan nan nan nan nan nan nan nan nan nan nan nan nan -0 -0 -0 -0 -0 -0 -0 nan nan nan nan nan
nan nan nan nan nan nan nan nan nan nan nan nan nan nan nan nan nan nan nan nan nan nan nan nan nan nan nan nan nan nan nan nan nan nan nan nan nan nan nan nan nan nan nan nan nan nan nan nan nan nan nan nan nan nan nan nan nan nan nan nan nan nan nan nan nan nan nan nan nan nan nan nan nan nan nan nan nan nan nan nan nan -7 nan nan nan nan
nan nan nan nan nan nan nan nan nan nan nan nan nan nan nan nan nan nan nan nan nan nan nan nan nan nan nan nan nan nan nan nan nan nan nan nan nan nan nan nan nan nan nan nan nan nan nan nan nan nan nan nan nan nan nan nan nan nan nan nan nan nan nan nan nan nan nan nan nan nan nan nan nan nan nan nan nan nan nan nan nan nan nan nan nan nan
nan nan nan nan nan nan nan nan nan nan nan nan nan nan nan nan nan nan nan nan nan nan nan nan nan nan nan nan nan nan nan nan nan nan nan nan nan nan nan nan nan nan nan nan nan nan nan nan nan nan nan nan nan nan nan nan nan nan nan nan nan nan nan nan nan nan nan nan nan nan nan nan nan nan nan nan nan nan nan nan nan nan -0 nan nan nan
nan nan nan nan nan nan nan nan nan nan nan nan nan nan nan nan nan nan nan nan nan nan nan nan nan nan nan nan nan nan nan nan nan nan -1 nan nan nan nan nan nan nan nan nan nan nan nan nan nan nan nan nan nan nan nan nan nan nan nan nan nan nan nan nan nan nan nan nan nan nan nan nan nan nan nan nan nan nan nan nan nan nan -0 -5 -5 nan
nan nan nan nan nan nan nan nan nan nan nan nan nan nan nan nan nan nan nan nan nan nan nan nan nan nan nan nan nan nan nan nan nan nan nan nan nan nan nan nan nan nan nan nan nan nan nan nan nan nan nan nan nan nan nan nan nan nan nan nan nan nan nan nan nan nan nan nan nan nan nan nan nan nan nan nan nan nan nan nan nan nan -0 -0 -0 nan
nan nan nan nan nan nan nan nan nan nan nan nan nan nan nan nan nan nan nan nan nan nan nan nan nan nan nan nan nan nan nan nan nan nan nan nan nan nan nan nan nan nan nan nan nan nan nan nan nan nan nan nan nan nan nan nan nan nan nan nan nan nan nan nan nan nan nan nan nan nan nan nan nan nan nan nan nan nan nan nan nan nan nan -0 -0 nan
nan nan nan nan nan nan nan nan nan nan nan nan nan nan nan nan nan nan nan nan nan nan nan nan nan nan nan nan nan nan nan nan nan nan nan nan nan nan nan nan nan nan nan nan nan nan nan nan nan nan nan nan nan nan nan nan nan nan nan nan nan nan nan nan nan nan nan nan nan nan nan nan nan nan nan nan nan nan nan nan nan nan nan nan nan nan
nan nan nan nan nan nan nan nan nan nan nan nan nan nan nan nan nan nan nan nan nan nan nan nan nan nan nan nan nan nan nan nan nan nan nan nan nan nan nan nan nan nan nan nan nan nan nan nan nan nan nan nan nan nan nan nan nan nan nan nan nan nan nan nan nan nan nan nan nan nan nan nan nan nan nan nan nan nan nan nan nan nan nan nan nan nan
nan nan nan nan nan nan nan nan nan nan nan nan nan nan nan nan nan nan nan nan nan nan nan nan nan nan nan nan nan nan nan nan nan nan nan nan nan nan nan nan nan nan nan nan nan nan nan nan nan nan nan nan nan nan nan nan nan nan nan nan nan nan nan nan nan nan nan nan nan nan nan nan nan nan nan nan nan nan nan nan nan nan nan nan nan nan
nan nan nan nan nan nan nan nan nan nan nan nan nan nan nan nan nan nan nan nan nan nan nan nan nan nan nan nan nan nan nan nan nan nan nan nan nan nan nan nan nan nan nan nan nan nan nan nan nan nan nan nan nan nan nan nan nan nan nan nan nan nan nan nan nan nan nan nan nan nan nan nan nan nan nan nan nan nan nan nan nan nan nan nan nan nan
nan nan nan nan nan nan nan nan nan nan nan nan nan nan nan nan nan nan nan nan nan nan nan nan nan nan nan nan nan nan nan nan nan nan nan nan nan nan nan nan nan nan nan nan nan nan nan nan nan nan nan nan nan nan nan nan nan nan nan nan nan nan nan nan nan nan nan nan nan nan nan nan nan nan nan nan nan nan nan nan nan nan nan nan nan nan
nan nan nan nan nan nan nan nan nan nan nan nan nan nan nan nan nan nan nan nan nan nan nan nan nan nan nan nan nan nan nan nan nan nan nan nan nan nan nan nan nan nan nan nan nan nan nan nan nan nan nan nan nan nan nan nan nan nan nan nan nan nan nan nan nan nan nan nan nan nan nan nan nan nan nan nan nan nan nan nan nan nan nan nan nan nan
nan nan nan nan nan nan nan nan nan nan nan nan nan nan nan nan nan nan nan nan nan nan nan nan nan nan nan nan nan nan nan nan nan nan nan nan nan nan nan nan nan nan nan nan nan nan nan nan nan nan nan nan nan nan nan nan nan nan nan nan nan nan nan nan nan nan nan nan nan nan nan nan nan nan nan nan nan nan nan nan nan nan nan nan nan nan
nan nan nan nan nan nan nan nan nan nan nan nan nan nan nan nan nan nan nan nan nan nan nan nan nan nan nan nan nan nan nan nan nan nan nan nan nan nan nan nan nan nan nan nan nan nan nan nan nan nan nan nan nan nan nan nan nan nan nan nan nan nan nan nan nan nan nan nan nan nan nan nan nan nan nan nan nan nan nan nan nan nan nan nan nan nan
nan nan nan nan nan nan nan nan nan nan nan nan nan nan nan nan nan nan nan nan nan nan nan nan nan nan nan nan nan nan nan nan nan nan nan nan nan nan nan nan nan nan nan nan nan nan nan nan nan nan nan nan nan nan nan nan nan nan nan nan nan nan nan nan nan nan nan nan nan nan nan nan nan nan nan nan nan nan nan nan nan nan nan nan nan nan
nan nan nan nan nan nan nan nan nan nan nan nan nan nan nan nan nan nan nan nan nan nan nan nan nan nan nan nan nan nan nan nan nan nan nan nan nan nan nan nan nan nan nan nan nan nan nan nan nan nan nan nan nan nan nan nan nan nan nan nan nan nan nan nan nan nan nan nan nan nan nan nan nan nan nan nan nan nan nan nan nan nan nan nan nan nan
nan nan nan nan nan nan nan nan nan nan nan nan nan nan nan nan nan nan nan nan nan nan nan nan nan nan nan nan nan nan nan nan nan nan nan nan nan nan nan nan nan nan nan nan nan nan nan nan nan nan nan nan nan nan nan nan nan nan nan nan nan nan nan nan nan nan nan nan nan nan nan nan nan nan nan nan nan nan nan nan nan nan nan nan nan nan
nan nan nan nan nan nan nan nan nan nan nan nan nan nan nan nan nan nan nan nan nan nan nan nan nan nan nan nan nan nan nan nan nan nan nan nan nan nan nan nan nan nan nan nan nan nan nan nan nan nan nan nan nan nan nan nan nan nan nan nan nan nan nan nan nan nan nan nan nan nan nan nan nan nan nan nan nan nan nan nan nan nan nan nan nan nan
nan nan nan nan nan nan nan nan nan nan nan nan nan nan nan nan nan nan nan nan nan nan nan nan nan nan nan nan nan nan nan nan nan nan nan nan nan nan nan nan nan -0 -0 -0 -0 -0 -0 -0 -0 -0 -0 nan nan nan nan nan nan nan nan nan nan nan nan nan nan nan nan nan nan nan nan nan nan nan nan nan nan nan nan nan nan nan nan nan nan nan
nan nan nan nan nan nan nan nan nan nan nan nan nan nan nan nan nan nan nan nan nan nan nan nan nan nan nan nan nan nan nan nan nan nan nan nan nan nan nan nan nan -0 nan nan nan nan nan nan nan nan nan -0 -0 -0 nan nan nan nan nan nan nan nan nan nan nan nan nan nan nan nan nan nan nan nan nan nan nan nan nan nan nan nan nan nan nan nan
Wind_Speed
2 3 3 3 3 2 2 2 3 4 3 3 3 3 3 4 4 4 5 5 4 4 4 3 3 4 5 6 8 8 9 8 8 8 8 7 7 7 7 7 7 7 6 6 6 5 5 5 5 5 4 4 3 3 3 3 3 3 3 4 4 4 4 4 4 4 4 4 5 5 5 5 5 5 4 4 3 2 2 2 2 2 3 3 4 4
2 3 3 3 3 2 2 2 3 3 4 3 3 3 3 4 3 3 3 4 3 3 3 3 3 4 4 5 6 7 8 7 7 7 7 7 6 6 6 6 6 6 5 5 5 4 4 4 4 4 4 3 3 3 3 3 3 3 4 4 4 4 4 4 5 5 5 5 6 6 6 5 5 5 4 3 3 3 3 3 3 3 3 4 4 5
3 3 3 3 3 2 2 2 2 3 4 4 4 4 4 4 4 3 3 3 3 2 2 2 3 4 4 4 4 5 6 6 7 7 6 6 5 5 5 5 5 5 4 4 4 4 4 4 3 3 3 3 3 3 3 3 4 4 4 4 5 5 5 5 5 5 6 6 6 6 6 5 5 5 4 4 3 3 3 3 3 4 4 4 4 5
4 3 3 2 2 2 2 2 2 3 3 3 4 4 4 4 3 3 2 2 2 2 2 3 3 3 3 3 3 2 4 5 5 5 5 5 4 4 4 4 4 4 4 3 3 3 3 3 3 3 3 3 3 3 3 4 4 4 4 4 5 5 5 5 5 5 5 5 5 5 5 5 5 4 4 4 4 4 4 4 4 4 4 5 5 5
3 3 3 2 1 1 1 2 3 3 3 3 3 3 3 3 2 2 2 2 2 2 2 3 3 3 3 3 3 2 1 2 3 4 4 4 4 4 4 4 4 4 3 3 3 3 3 3 3 3 3 3 4 4 4 4 4 4 4 4 4 4 4 4 4 4 4 4 4 4 4 4 4 4 5 5 5 5 5 5 5 5 5 5 5 6
3 3 2 2 1 1 1 2 2 3 3 2 2 2 2 2 2 2 2 2 2 2 2 2 2 3 3 3 3 3 2 0 1 2 2 3 3 3 4 4 4 3 3 3 3 3 3 3 3 3 4 4 4 4 4 4 4 4 4 3 3 3 3 3 3 3 3 3 4 4 4 4 4 5 5 5 5 6 6 6 6 6 6 6 6 6
3 2 2 2 1 1 1 2 2 2 2 2 2 2 2 2 2 2 2 1 1 2 2 2 2 2 3 3 4 5 4 2 2 2 1 1 2 3 3 3 3 3 3 3 3 3 3 3 3 3 4 4 4 4 4 4 3 3 3 2 2 2 1 2 2 3 3 3 4 4 4 5 5 5 5 6 6 6 6 7 7 7 7 7 6 6
4 2 2 2 1 1 1 1 2 2 2 2 2 1 1 1 1 2 2 2 2 2 2 2 2 2 2 3 4 4 3 3 3 3 3 2 1 1 2 2 3 3 3 3 3 2 2 3 3 3 3 4 4 4 4 3 3 2 1 1 0 1 2 2 3 3 4 4 5 5 5 5 6 6 6 7 7 7 7 7 7 7 7 7 7 6
5 4 2 2 2 2 2 1 1 1 2 2 2 2 2 1 1 1 2 2 2 3 2 2 1 2 2 3 3 3 3 2 1 1 1 2 2 1 1 0 1 2 3 2 2 2 2 2 2 2 3 3 3 3 3 2 2 1 1 1 2 2 3 3 4 4 5 5 5 6 6 6 7 7 7 7 7 7 7 7 7 7 7 7 7 6
4 4 4 2 2 2 2 2 1 1 1 2 2 2 2 2 2 1 1 1 1 2 2 2 1 1 2 3 3 4 4 3 2 1 1 1 1 1 1 1 1 1 2 2 2 2 2 2 2 2 2 2 2 3 3 2 2 2 3 3 3 4 4 4 4 5 5 5 6 6 6 7 7 7 7 7 7 7 7 7 7 7 7 7 7 6
4 3 3 3 2 2 2 2 1 1 2 2 2 2 1 1 2 3 3 2 0 1 2 2 1 1 1 2 3 4 3 3 3 4 3 1 1 1 1 1 1 1 1 1 1 1 1 1 1 2 2 3 3 4 4 4 4 4 4 4 4 5 5 5 5 5 5 5 6 6 7 7 7 7 7 7 7 7 7 6 6 6 6 6 6 6
3 3 2 2 2 2 2 1 1 1 2 2 2 1 0 0 1 3 4 3 2 1 0 1 1 1 1 1 2 3 3 2 3 3 4 3 3 3 2 3 3 4 2 3 3 2 2 1 1 2 2 2 3 3 4 4 4 5 5 5 5 5 5 5 4 5 5 6 6 6 7 7 7 6 6 6 6 6 6 6 6 6 5 5 5 5
3 2 2 2 2 2 2 2 2 2 2 3 3 3 3 2 1 2 3 3 2 1 1 1 1 1 1 1 1 2 2 1 2 2 3 3 3 3 3 3 3 3 3 3 3 3 3 3 3 3 3 3 2 2 3 3 4 5 5 5 5 5 5 5 5 5 5 6 6 6 6 6 6 5 5 5 5 5 5 5 5 5 4 4 4 4
3 3 2 2 2 3 2 3 3 3 4 4 3 3 2 2 2 2 3 2 2 1 1 1 1 1 2 1 1 1 1 1 1 2 2 2 2 2 2 2 2 2 3 2 2 2 3 3 3 3 3 3 3 2 2 3 3 4 5 5 5 5 5 5 5 5 6 6 6 6 6 5 5 5 4 4 4 4 4 4 4 4 4 4 4 3
4 4 3 3 3 3 3 3 4 4 4 3 2 2 2 2 2 2 3 3 2 1 1 2 2 2 2 2 1 0 1 1 1 1 1 2 2 2 1 1 1 2 2 1 1 2 2 2 2 1 2 2 1 1 2 2 4 5 5 6 6 6 6 6 6 6 6 6 6 6 5 4 4 4 4 3 3 3 3 3 3 3 3 3 3 3
4 4 4 4 4 3 3 3 3 3 2 2 2 2 3 2 2 3 4 3 2 2 2 2 2 1 3 2 1 1 1 2 2 1 0 1 2 2 1 1 1 1 2 1 1 2 2 1 1 1 1 2 2 3 4 4 5 6 6 7 7 6 6 6 6 6 6 6 6 5 4 4 4 3 3 3 3 3 3 3 3 3 3 3 3 3
3 3 3 4 4 3 2 2 2 3 3 2 2 2 3 3 3 3 3 3 3 2 2 3 2 1 2 2 2 1 1 2 2 2 1 1 2 2 1 1 0 0 1 1 2 2 1 1 1 1 2 3 4 4 5 6 6 7 7 7 7 7 6 6 6 6 6 6 5 5 4 4 4 3 3 3 3 3 2 2 2 2 3 3 3 3
3 3 3 3 3 3 2 2 2 2 2 2 2 2 2 2 2 3 3 3 3 3 3 3 3 2 2 1 2 1 1 2 3 2 1 1 2 2 2 1 1 0 1 2 2 2 1 1 2 2 3 4 5 5 6 6 7 7 7 7 7 7 6 6 6 6 6 6 6 5 5 4 4 4 3 3 3 3 3 2 3 3 3 4 4 4
3 3 3 3 3 3 3 3 3 3 3 3 3 3 2 2 2 2 2 3 3 3 3 3 3 2 2 2 2 1 1 2 3 3 1 1 2 2 2 2 1 1 1 2 2 2 1 2 2 3 4 4 5 5 6 6 7 7 7 7 7 7 6 6 6 6 6 6 6 6 5 5 4 4 4 4 4 3 3 3 4 4 4 4 4 4
4 3 3 3 3 3 3 3 4 4 4 4 4 4 3 2 2 2 2 2 2 2 2 3 3 3 2 2 2 2 0 2 3 3 2 1 2 2 2 2 1 0 1 2 2 2 1 1 2 3 4 5 5 5 6 6 6 7 7 7 7 7 6 6 6 6 6 6 6 6 6 5 5 5 5 5 4 4 4 4 5 5 5 5 5 5
4 4 4 3 4 4 4 4 4 4 5 5 5 4 3 3 2 2 2 2 2 2 2 3 3 3 2 2 2 1 0 2 3 3 2 1 2 2 1 1 1 0 1 2 2 2 1 1 2 2 4 4 5 6 6 6 7 7 7 7 7 6 6 6 6 6 6 7 7 6 6 6 6 6 6 5 5 5 5 5 5 6 6 6 5 5
4 5 4 4 4 4 4 4 5 5 6 6 6 5 4 4 3 3 2 3 3 3 3 3 2 2 2 1 1 1 0 1 3 3 2 1 2 2 1 1 1 1 1 2 2 2 1 1 2 3 4 5 6 6 6 7 7 7 7 6 6 6 5 5 5 6 6 6 7 7 7 6 6 6 6 6 6 6 6 6 6 6 6 6 6 6
4 4 4 4 3 3 3 4 4 4 4 5 5 5 4 4 5 5 4 4 4 3 2 2 1 0 0 0 1 1 1 1 2 3 3 1 2 2 1 1 1 0 2 2 2 2 2 2 2 3 4 5 6 6 7 7 7 7 6 6 5 5 5 5 5 6 6 6 6 6 6 6 6 6 6 6 6 6 6 6 6 6 6 6 6 6
3 3 3 3 3 2 2 3 3 3 2 3 3 3 3 3 3 3 3 3 3 3 2 2 2 2 2 2 2 2 1 1 1 2 3 1 2 3 1 1 1 0 2 2 2 2 2 2 2 2 2 5 6 6 6 6 6 5 5 4 4 4 4 5 5 5 6 6 6 6 6 6 6 6 6 6 6 6 6 6 6 6 6 6 6 6
3 3 3 3 4 4 4 4 5 5 4 4 4 4 4 5 5 5 4 4 3 3 3 3 2 2 2 3 2 2 2 1 1 2 3 1 1 2 2 0 0 1 2 2 2 1 2 2 2 2 2 3 5 6 6 5 4 4 3 3 3 4 4 4 4 5 5 5 5 5 5 5 5 5 5 5 5 5 5 5 5 6 6 6 6 6
5 5 6 6 7 8 9 9 9 9 8 6 5 5 5 5 5 5 4 3 3 3 4 3 1 0 1 2 2 2 2 1 0 2 3 2 1 2 2 0 1 1 2 2 2 1 1 2 2 2 2 3 4 5 5 4 3 3 2 2 3 3 4 4 4 4 4 4 4 4 4 4 4 4 4 4 5 5 5 5 5 5 6 6 6 6
10 10 11 11 11 12 12 12 12 12 12 10 9 7 6 5 5 4 3 2 2 3 4 3 1 1 1 1 2 2 2 1 0 1 2 2 1 1 1 0 0 0 1 2 2 1 1 2 2 2 2 2 3 4 4 3 2 2 2 2 2 3 3 3 3 3 4 4 4 4 4 4 4 4 4 4 5 5 5 5 6 6 6 5 4 3
12 12 12 12 12 12 12 13 13 13 12 12 12 10 7 5 5 4 3 3 3 3 4 3 2 2 1 2 2 2 2 2 2 2 2 2 1 1 2 0 1 1 1 2 2 2 2 2 2 2 3 3 3 3 4 4 3 3 2 2 2 2 3 3 4 4 4 4 4 4 4 4 4 4 5 5 5 5 5 6 6 6 5 3 1 1
9 10 10 9 9 9 9 9 10 11 12 12 11 9 6 4 4 4 4 3 3 3 3 3 3 2 2 2 2 2 2 2 2 2 3 3 1 1 1 0 0 0 0 1 2 2 2 2 2 2 2 3 3 2 3 3 4 4 4 4 4 3 3 3 4 4 4 4 4 4 5 4 4 4 4 5 5 5 5 6 5 4 2 1 1 1
5 6 7 7 7 6 5 5 5 8 10 10 9 7 4 4 4 4 4 4 4 4 3 3 3 2 2 0 1 2 3 3 2 2 4 3 1 1 1 0 0 0 1 1 1 2 3 2 2 2 2 2 2 2 2 2 2 3 3 4 4 4 4 4 4 4 5 5 4 4 4 4 4 4 4 4 4 5 5 5 4 1 2 2 2 1
4 5 5 5 5 5 5 5 4 4 5 6 6 5 4 4 4 4 4 4 4 4 4 3 3 3 2 2 1 1 2 3 2 2 4 3 2 2 1 1 1 0 1 2 1 1 2 2 2 2 1 2 2 2 2 1 1 1 2 2 3 3 4 5 4 4 4 4 4 4 4 3 3 3 3 4 4 4 5 5 4 2 3 2 2 1
3 3 3 3 3 4 4 4 4 4 4 4 4 3 3 3 4 4 4 4 4 4 4 4 3 3 2 3 3 2 2 3 2 3 4 3 2 1 2 2 1 0 0 1 2 2 1 2 2 2 2 2 2 2 2 1 1 1 1 1 2 2 4 4 4 4 4 4 3 3 3 3 3 3 3 4 4 4 4 5 4 2 3 3 2 2
3 2 2 3 3 3 3 3 3 3 3 3 2 2 2 2 3 4 4 4 4 4 4 4 3 3 2 2 2 2 3 3 3 4 5 3 2 1 1 2 2 1 1 1 1 2 2 1 1 2 2 2 2 2 2 1 1 1 1 1 1 2 3 3 3 3 3 3 3 3 4 4 4 4 4 4 5 5 5 5 5 3 3 3 3 3
2 2 2 3 3 3 3 3 3 2 2 1 1 1 1 1 2 3 4 4 4 4 4 4 4 3 3 2 1 2 3 3 4 4 5 3 3 2 2 2 2 2 1 1 1 1 1 1 1 1 2 2 2 2 2 2 1 1 0 0 1 1 2 2 2 2 2 2 2 3 3 3 4 5 5 5 5 6 6 6 6 6 4 3 4 3
2 2 2 2 2 1 2 2 2 1 1 1 0 0 1 1 2 2 3 3 3 3 4 4 4 4 4 3 2 2 3 3 4 4 5 4 3 2 2 2 3 3 2 2 1 1 0 0 0 0 1 2 2 2 2 2 1 1 1 1 1 1 1 1 1 1 1 1 1 2 2 2 3 3 4 5 6 6 7 7 7 7 7 5 4 4
1 0 0 1 0 0 1 1 1 1 1 1 1 1 1 1 2 2 2 2 3 3 3 3 3 4 4 4 4 3 3 3 3 4 5 4 3 3 2 2 3 3 3 2 2 1 1 1 0 0 0 1 2 2 2 2 2 1 1 1 1 1 1 1 0 0 1 1 1 1 1 1 2 2 3 5 6 7 7 7 7 7 7 7 6 5
1 1 1 1 1 1 1 1 1 2 2 2 2 2 2 2 2 2 1 1 2 2 2 2 2 3 3 4 4 4 3 2 2 3 3 3 3 3 2 2 3 3 3 3 3 2 2 1 0 0 0 1 1 2 2 3 2 2 2 1 1 1 1 1 1 1 1 1 1 1 2 1 2 2 3 5 5 6 6 7 7 7 8 8 7 7
1 2 2 1 1 1 1 2 2 2 3 3 3 2 2 2 2 1 1 1 1 1 2 2 2 2 3 3 3 3 2 2 3 3 3 3 3 3 3 2 2 3 3 3 3 3 3 2 1 0 1 2 2 2 2 2 2 2 2 2 2 2 1 1 1 1 1 1 2 2 2 2 1 1 2 3 3 3 3 4 5 6 7 7 7 8
2 2 2 2 2 2 2 3 3 3 3 2 2 1 2 2 2 1 1 1 1 1 1 1 1 1 1 2 2 3 3 3 3 4 3 3 3 3 3 2 2 2 2 2 2 3 3 3 3 2 2 2 2 2 1 1 1 1 2 3 2 2 2 1 1 1 2 2 2 2 2 1 1 1 1 1 1 1 1 2 3 3 3 2 4 5
2 3 3 3 3 3 3 3 3 2 1 1 1 2 2 2 2 2 1 1 1 1 1 0 0 0 0 1 2 2 2 3 3 4 3 3 3 3 3 3 3 2 2 1 2 3 3 3 3 3 3 2 1 1 1 1 1 1 1 2 2 2 2 1 1 2 2 1 2 2 2 1 1 1 1 1 1 1 1 1 2 2 1 0 1 2
3 3 3 3 2 3 3 2 1 1 1 1 2 2 1 1 2 2 1 1 1 1 1 1 1 1 1 1 1 2 2 3 4 4 4 4 4 3 3 3 3 3 3 2 2 2 3 3 3 2 2 2 2 2 3 2 3 3 2 2 3 3 3 3 2 1 1 1 1 1 1 1 1 1 1 1 2 2 2 2 2 2 2 1 1 1
4 3 3 2 2 1 1 0 0 1 1 2 2 1 1 2 2 3 2 1 0 1 1 1 1 1 2 3 2 2 2 3 4 5 5 5 5 5 4 4 3 3 3 3 2 2 2 3 3 3 3 2 2 3 3 3 3 3 3 3 3 3 4 4 2 0 0 1 1 1 1 1 1 1 1 2 2 2 3 3 3 4 3 2 2 3
4 3 3 2 1 1 0 1 1 1 1 1 1 1 2 2 2 3 3 2 1 1 1 1 1 0 1 3 3 3 3 2 3 4 5 5 6 6 5 5 4 4 4 3 2 2 3 3 3 3 3 3 3 3 4 4 4 3 3 2 2 1 2 2 2 1 0 1 1 1 1 1 2 2 2 2 2 2 2 4 5 6 5 4 3 3
3 2 1 1 1 0 0 1 1 1 2 2 2 2 1 1 2 2 3 2 2 1 1 2 2 1 0 2 3 3 3 3 2 2 3 5 6 6 5 5 5 5 5 4 3 3 2 3 4 4 3 3 3 4 4 4 4 3 3 3 3 3 3 2 2 1 1 1 1 2 2 2 2 2 2 2 2 2 2 3 3 4 5 4 3 4
2 1 1 1 1 1 1 1 1 2 2 2 2 2 2 1 1 2 3 2 2 2 1 2 2 1 1 2 2 2 2 3 2 2 2 3 5 7 6 5 5 5 5 5 4 4 3 3 3 3 2 3 3 4 5 5 4 4 4 4 4 4 5 3 2 2 2 2 2 2 2 1 1 1 2 2 2 2 2 3 3 4 4 3 3 4
1 1 1 1 1 2 2 2 2 2 2 2 2 2 2 1 1 2 2 3 2 2 1 2 2 1 2 2 1 1 1 2 2 2 2 2 2 2 4 4 5 5 4 5 4 4 4 4 3 2 2 2 3 4 5 5 4 4 4 4 4 4 4 4 3 3 3 3 3 2 2 1 1 1 2 2 2 3 3 3 4 4 4 4 4 4
2 2 2 2 2 2 2 2 2 2 2 2 2 2 1 2 2 2 2 2 3 2 2 2 2 2 3 2 1 1 1 1 2 2 2 2 2 2 1 2 3 4 4 4 4 4 4 3 3 3 3 2 3 4 5 4 4 4 4 3 3 3 3 4 3 3 3 3 3 2 1 0 0 1 2 2 2 3 3 3 4 4 4 4 4 4
4 4 3 3 2 2 2 2 2 2 3 3 2 2 2 2 3 3 2 2 2 3 3 2 2 2 3 3 2 2 2 2 1 1 2 1 1 1 0 0 1 2 2 3 3 3 4 3 3 4 4 4 4 4 4 4 4 4 3 3 3 3 4 4 3 2 2 2 2 2 1 1 2 2 2 2 3 3 3 3 3 4 4 4 4 4
4 4 4 3 3 3 3 3 3 3 4 3 3 2 1 3 4 5 3 3 3 3 3 3 3 3 3 3 3 3 3 2 2 2 1 1 1 0 0 1 2 2 2 2 3 3 4 4 5 6 6 6 6 5 4 4 4 3 3 3 3 3 4 4 3 2 2 2 2 2 2 2 2 3 2 2 3 3 3 3 3 4 4 4 4 4
4 4 4 4 4 4 4 3 4 4 4 4 3 3 2 2 2 3 3 3 3 3 3 4 4 4 4 3 3 3 3 2 2 2 2 1 1 1 1 2 2 2 2 2 2 2 2 3 5 7 9 10 9 7 6 5 4 3 3 3 3 3 4 4 3 3 3 3 2 2 2 2 2 2 2 2 3 4 4 3 3 3 3 3 3 3
4 4 4 4 4 4 4 4 4 4 4 4 4 3 3 2 2 2 2 3 3 3 3 4 4 4 4 4 4 4 4 3 3 2 2 2 1 1 2 2 3 2 2 2 1 1 1 1 2 4 7 11 13 12 8 6 4 3 4 3 3 3 3 3 3 3 3 3 3 2 2 2 2 2 2 2 3 3 3 3 3 3 3 2 2 3
Wind_Direction
136 146 156 152 141 132 143 144 133 125 121 113 105 99 93 86 78 72 69 69 69 68 69 62 59 65 78 93 99 101 103 105 107 108 109 108 108 108 108 107 106 105 105 106 106 107 107 104 101 98 95 91 92 96 105 112 116 119 121 119 117 114 109 101 93 87 83 79 75 72 69 65 61 56 51 45 37 25 8 352 340 332 328 323 319 314
139 142 155 153 143 135 146 150 140 131 129 123 118 113 107 100 91 80 69 66 66 67 71 70 67 63 57 69 91 103 108 112 115 115 114 113 112 112 112 111 111 110 111 112 113 113 112 111 109 107 104 103 104 107 112 113 110 107 102 98 93 88 82 75 68 64 61 57 55 53 51 49 45 40 33 23 10 357 344 337 332 328 325 320 315 310
153 153 162 157 149 143 146 151 142 130 126 124 122 117 113 109 104 96 86 75 65 57 57 57 60 60 51 46 77 104 114 121 124 124 122 121 121 121 122 121 121 121 124 126 127 127 126 124 124 124 125 126 128 129 127 118 109 100 93 87 81 76 71 65 60 55 50 46 42 39 36 33 29 22 12 1 350 339 332 329 325 321 317 312 308 305
159 160 162 150 140 139 144 146 140 130 121 118 116 113 110 108 106 101 92 80 65 50 40 34 41 47 44 27 40 82 123 133 137 137 135 136 138 140 141 139 138 139 142 144 145 145 145 144 144 146 148 149 148 145 138 126 114 103 94 86 80 74 69 63 57 51 44 38 33 27 22 17 10 2 353 343 334 327 322 318 314 310 307 303 301 299
164 159 153 137 126 123 125 134 133 128 117 113 111 108 102 102 100 91 73 63 56 47 32 26 31 35 35 17 9 14 121 151 154 154 153 154 158 162 165 162 160 161 163 164 165 165 166 168 167 168 167 165 161 155 146 133 121 110 99 91 83 75 69 61 52 44 35 26 17 10 3 357 351 343 335 328 322 316 311 307 304 300 297 294 293 293
160 152 139 128 120 117 114 131 133 129 116 111 105 99 90 86 82 74 60 52 45 35 23 25 32 35 33 19 4 356 352 129 162 162 161 167 174 181 183 181 180 180 181 182 183 186 186 187 185 182 178 174 167 159 149 138 126 115 104 94 83 72 61 48 35 22 10 360 352 346 339 334 328 322 318 313 308 304 301 298 295 291 289 286 285 285
147 136 121 113 107 104 106 131 139 138 128 121 108 93 74 66 61 57 52 45 31 19 12 20 31 39 37 23 10 2 358 5 17 35 70 146 177 188 192 192 192 192 191 194 195 197 195 194 190 184 179 173 167 159 150 140 130 118 106 94 78 55 30 7 353 342 334 328 324 320 316 313 308 304 300 298 296 293 292 290 288 285 282 280 279 279
144 137 124 120 114 107 106 125 138 141 134 129 127 120 95 72 56 49 45 38 28 20 16 13 14 18 25 20 12 6 2 8 16 23 33 35 46 181 195 195 194 193 191 192 192 191 188 184 180 176 171 167 163 158 152 145 138 128 118 102 25 333 321 316 313 311 310 308 307 306 303 300 297 293 290 287 286 285 284 283 282 280 278 276 275 275
147 148 147 142 137 133 130 132 129 124 118 123 130 135 137 134 102 59 49 38 28 23 25 26 12 358 354 6 6 3 358 2 15 43 64 41 32 23 21 31 181 184 179 177 173 169 164 165 164 164 164 168 169 170 169 171 174 186 218 256 276 286 291 294 296 298 299 301 301 301 299 296 293 289 286 283 280 278 276 276 275 275 274 274 274 274
143 146 148 144 139 134 134 140 129 96 75 93 104 119 138 146 146 140 126 68 22 18 25 39 38 352 334 349 357 359 356 355 3 36 114 140 150 141 67 51 58 143 162 159 154 149 148 158 165 173 184 193 202 208 214 221 230 241 251 262 270 276 282 285 289 293 296 299 301 300 298 295 292 288 284 280 277 273 270 269 268 269 269 270 272 274
139 141 139 137 129 117 115 131 131 106 79 85 81 76 83 128 150 160 170 178 171 19 19 25 33 25 344 344 350 356 1 1 2 4 9 29 140 130 92 67 44 41 129 123 124 131 145 181 209 220 231 236 239 241 244 247 250 253 257 263 267 271 275 279 284 290 295 298 299 299 297 294 291 287 283 279 274 269 265 263 262 262 263 265 268 271
141 139 133 135 136 131 119 109 96 94 105 114 121 129 172 166 153 158 170 176 172 152 48 13 13 16 9 342 344 349 1 8 4 357 355 359 6 11 15 19 16 14 15 22 24 20 11 354 326 305 298 287 275 266 260 258 257 257 257 260 263 266 269 274 280 287 292 296 296 295 293 291 289 286 283 278 272 267 262 259 256 255 256 259 262 266
131 129 124 129 141 147 143 136 129 134 158 173 179 184 189 183 155 140 151 157 154 141 131 57 12 349 334 336 344 350 359 5 359 352 356 1 3 3 6 11 10 9 12 14 16 16 14 11 5 360 3 356 334 307 287 275 266 260 257 258 259 262 265 271 277 284 289 291 291 290 288 287 286 284 281 276 271 266 260 257 253 250 249 251 254 258
132 130 129 141 155 163 162 160 164 173 184 187 185 176 164 146 126 115 118 122 114 81 73 71 34 345 322 323 336 8 22 26 15 6 359 354 353 359 9 13 8 6 14 11 2 359 10 20 19 15 16 19 11 352 328 298 275 263 258 258 259 261 263 269 275 280 285 286 285 283 282 282 283 282 279 275 270 264 259 254 249 245 241 243 244 248
149 150 155 166 173 177 178 176 179 183 186 177 156 127 101 97 104 116 123 129 122 69 51 56 33 354 319 306 305 84 90 82 76 55 337 323 330 349 21 24 10 5 19 8 329 321 352 14 14 355 352 360 348 317 298 280 267 261 259 258 258 259 262 266 271 275 278 279 278 277 278 279 280 280 278 273 268 263 258 252 245 239 235 235 236 237
159 161 166 174 179 182 183 179 179 179 172 149 129 123 124 131 134 133 133 140 132 104 86 83 61 358 314 306 306 100 100 95 101 113 218 295 315 345 35 45 21 354 358 335 289 288 321 336 328 303 297 286 280 277 276 269 264 261 259 257 256 257 258 262 266 269 271 270 270 269 270 272 274 275 275 271 267 263 258 252 243 237 233 232 230 230
161 167 170 172 179 185 184 172 164 158 150 140 132 131 137 144 141 136 132 132 126 118 116 121 126 144 285 302 309 336 101 106 109 113 127 283 305 331 17 61 68 310 312 290 270 262 270 273 272 267 258 262 268 274 275 271 266 262 259 257 256 255 256 258 259 261 262 262 261 259 258 260 263 265 266 266 265 262 258 251 243 239 238 234 231 230
167 172 169 173 179 183 177 166 156 147 139 139 130 115 97 106 114 119 124 127 131 135 139 138 146 158 178 254 274 276 107 117 115 108 92 279 298 320 355 38 77 199 292 279 269 255 234 234 236 245 258 268 272 274 273 269 265 261 259 257 255 254 254 254 254 255 256 255 254 251 249 248 249 251 253 255 256 257 254 247 240 239 239 236 233 231
178 178 173 177 178 176 173 174 169 161 156 155 146 129 105 96 96 104 114 124 133 141 145 151 162 172 177 208 243 255 124 117 110 105 103 259 287 309 346 15 38 26 296 275 266 258 243 245 252 259 269 277 278 274 270 266 262 259 257 255 254 253 251 250 250 250 251 251 249 247 243 241 240 240 240 242 243 243 242 238 235 234 236 236 234 232
182 188 187 174 165 164 180 190 186 176 167 159 145 132 127 124 113 104 111 117 123 129 135 149 168 189 200 224 248 267 117 101 96 95 108 248 282 301 342 18 43 18 291 274 268 261 255 263 272 278 282 280 277 272 267 264 262 259 257 255 253 250 248 247 246 247 247 248 247 244 240 237 235 233 233 234 234 235 235 234 235 235 237 238 237 236
184 200 205 177 162 164 185 195 191 179 163 143 131 125 130 127 125 125 129 121 116 114 119 148 174 194 194 202 224 251 338 102 102 102 97 328 296 297 330 38 68 71 282 276 275 275 279 278 278 277 278 277 274 270 267 266 264 262 259 255 252 248 246 245 245 246 247 247 246 244 241 238 234 231 230 230 231 232 233 233 234 236 238 240 240 240
184 199 203 185 175 173 178 179 177 169 156 144 141 143 147 146 150 156 155 141 138 142 150 174 190 197 184 191 223 267 336 111 119 119 103 25 302 292 313 39 74 85 263 271 277 291 304 289 277 273 273 277 276 273 270 268 267 264 260 255 251 248 245 245 246 247 247 246 244 243 241 239 236 233 231 231 231 231 232 233 234 235 237 239 240 241
174 181 180 184 185 178 160 153 155 155 150 144 149 155 160 158 161 165 168 159 153 151 155 163 158 118 103 276 308 329 357 88 113 114 107 134 267 276 305 19 58 52 257 266 280 302 319 297 280 273 278 284 283 279 274 268 264 260 257 254 250 247 246 246 247 246 245 242 240 239 238 237 236 234 232 232 232 232 233 234 234 235 236 237 238 240
149 153 157 173 178 168 139 136 136 134 120 109 109 114 117 118 122 128 134 133 130 126 118 90 59 32 11 5 357 350 348 28 87 103 109 160 241 263 291 27 51 308 265 268 285 315 327 308 292 285 291 293 290 284 275 265 259 254 253 251 249 248 247 245 244 241 239 236 234 232 232 233 233 233 232 233 233 234 234 235 235 235 236 238 239 240
124 130 141 155 158 151 138 135 133 130 119 108 101 99 96 93 91 89 86 86 87 88 84 74 61 30 353 355 341 320 310 343 82 111 118 153 239 269 285 50 118 226 267 279 299 332 339 310 303 303 308 300 297 292 280 266 254 247 246 248 249 248 245 242 238 234 230 227 226 225 227 228 229 231 232 233 235 236 237 238 238 239 240 241 243 245
119 125 133 138 138 136 132 131 131 131 128 124 119 116 111 104 97 87 76 71 76 83 86 84 80 339 318 326 305 286 286 307 89 121 128 137 203 277 287 211 142 212 274 290 307 335 340 304 300 304 309 302 302 300 290 274 255 239 237 242 244 243 240 235 230 225 221 219 219 221 224 227 230 233 236 238 240 241 242 243 243 244 245 246 249 251
120 124 128 130 129 128 127 127 127 128 128 127 128 128 123 113 104 99 98 105 105 104 108 120 150 249 309 303 282 272 278 284 218 152 133 122 130 259 272 227 133 182 280 291 297 300 297 291 294 299 301 297 304 307 303 297 285 264 254 250 243 237 233 228 224 220 220 219 221 224 227 232 235 239 241 244 245 247 248 248 249 250 251 251 252 259
123 127 129 129 129 128 128 128 129 129 129 130 131 131 125 115 117 131 166 167 133 114 120 139 160 186 231 250 262 273 286 267 229 188 137 113 124 234 255 223 113 125 259 291 295 298 299 286 286 289 293 295 301 309 314 321 323 324 321 304 280 257 242 234 229 227 227 227 229 231 234 237 240 243 246 248 249 251 251 252 254 255 256 252 238 61
117 124 122 116 113 114 118 123 130 135 135 135 135 132 121 118 132 154 178 160 133 120 131 147 158 168 187 232 275 298 295 263 226 183 133 113 135 238 250 215 99 117 135 323 325 326 324 298 281 279 287 298 305 315 320 333 340 343 342 331 318 301 277 259 246 239 237 236 237 237 239 240 243 245 247 250 251 253 253 254 255 255 249 160 111 101
66 77 76 61 57 59 64 75 109 131 138 137 135 128 110 114 131 146 155 142 133 131 145 152 156 156 156 117 349 323 292 268 229 172 135 131 164 230 220 136 139 151 122 74 18 347 327 308 292 280 285 304 310 313 314 330 344 352 351 340 330 317 301 286 272 260 251 247 245 244 243 243 244 247 249 252 253 254 254 253 249 223 102 103 106 112
38 44 40 25 21 23 31 37 49 77 110 113 111 106 98 106 119 130 136 137 137 138 146 154 158 157 145 126 128 235 270 266 235 172 138 143 170 199 165 157 172 184 140 115 103 40 314 303 302 304 315 319 314 308 304 320 343 356 355 346 334 321 314 307 298 286 273 266 260 255 251 251 251 253 257 258 259 259 259 257 245 190 114 117 127 155
50 50 42 18 10 13 25 32 35 41 54 65 70 76 89 108 124 135 142 144 141 138 139 148 154 156 153 153 166 192 236 252 224 183 144 139 149 170 153 146 141 139 155 122 131 145 183 260 289 309 329 323 315 308 304 317 342 6 360 355 335 322 325 331 327 318 310 297 287 280 277 274 273 273 274 272 271 269 267 266 253 205 134 138 156 188
57 46 31 17 14 17 21 23 29 36 45 47 49 56 76 112 133 144 150 150 144 138 136 141 145 150 153 163 185 212 241 250 220 190 162 136 128 141 144 130 123 112 58 61 105 135 161 208 262 299 315 311 307 305 305 316 342 27 25 5 326 318 331 349 353 349 344 332 326 321 318 312 308 302 294 289 285 280 276 273 265 243 179 155 164 188
60 47 30 20 16 14 14 15 19 24 32 39 48 62 85 125 144 152 158 158 153 147 144 146 149 153 154 164 207 247 264 258 231 202 176 142 128 138 142 140 137 131 111 78 62 73 134 201 253 294 307 306 303 299 296 303 324 359 25 324 283 296 317 346 356 358 350 352 346 339 336 332 327 320 308 301 294 288 282 276 270 261 241 193 174 175
65 50 31 20 14 8 2 358 356 354 344 328 254 170 158 162 164 166 169 168 165 161 157 156 157 158 159 166 184 222 254 254 236 209 182 156 139 135 140 162 161 151 137 137 129 118 149 226 233 271 317 315 309 301 290 288 295 304 283 232 235 252 276 306 328 338 338 348 339 329 332 335 331 322 310 301 295 289 284 279 273 267 260 236 210 186
100 96 359 356 341 276 266 289 297 293 280 266 246 216 190 184 182 181 177 176 176 174 172 170 166 163 163 165 174 193 224 236 221 198 178 160 145 138 148 179 175 159 143 147 150 152 156 175 186 145 56 308 300 298 297 303 314 322 305 266 249 247 247 238 224 297 345 334 317 307 306 311 306 298 292 293 292 290 288 285 280 275 270 261 250 230
163 200 231 237 224 217 225 244 253 252 252 252 243 224 198 190 186 185 180 175 174 175 178 180 181 180 178 172 175 184 201 202 194 181 167 154 145 142 154 175 176 167 155 156 156 153 140 132 96 18 156 217 241 270 293 318 333 338 325 309 294 279 265 235 181 160 167 234 260 266 267 267 268 274 281 290 296 300 300 297 293 288 282 278 272 265
191 212 227 229 222 213 214 228 234 232 229 230 226 214 190 175 166 158 143 138 143 157 168 176 189 200 200 190 185 183 174 167 166 166 159 151 142 139 145 153 172 180 174 162 155 147 139 137 143 206 256 240 240 248 271 311 326 323 307 302 297 288 277 257 201 178 185 216 240 250 251 246 248 268 289 303 319 328 318 308 302 297 293 290 285 280
203 215 226 222 214 206 206 216 220 222 218 213 199 167 135 122 110 98 86 88 93 102 122 154 181 207 221 216 208 198 179 169 167 167 162 157 148 140 138 146 164 182 181 156 144 141 143 152 164 182 205 237 254 262 270 270 266 275 293 310 311 303 281 257 218 203 199 214 242 259 264 262 263 275 286 312 333 335 311 304 301 301 305 313 303 294
208 218 227 223 213 204 204 212 214 210 195 154 115 103 101 95 85 75 68 72 74 71 61 63 62 24 301 275 250 229 205 185 175 171 166 167 161 150 144 152 158 161 153 138 135 139 144 156 169 179 183 192 219 247 264 248 233 238 304 321 314 301 288 260 234 220 209 213 235 255 270 274 264 249 248 242 229 224 234 255 276 286 298 315 318 307
209 221 231 230 222 217 219 221 212 154 122 106 97 95 104 110 106 97 81 65 54 47 50 58 42 10 339 317 282 254 229 209 194 185 179 179 174 165 159 162 157 150 143 142 145 150 156 163 176 189 195 198 223 249 257 249 246 251 274 276 275 274 275 268 257 238 219 229 232 237 247 260 259 249 241 238 228 220 215 220 241 259 267 212 181 182
218 223 226 222 224 229 247 283 81 98 105 101 111 134 161 151 142 134 124 112 53 7 31 58 48 354 322 313 303 287 254 228 212 201 191 186 182 178 176 175 167 157 147 149 162 183 192 189 195 204 209 210 232 256 265 261 256 252 250 254 272 289 295 287 289 308 242 254 248 234 225 240 250 256 254 255 252 243 231 223 232 242 248 226 200 190
224 225 219 208 204 204 121 94 102 112 110 117 155 184 190 169 154 148 144 153 168 181 74 83 92 96 289 294 299 302 294 269 239 218 203 193 187 185 185 185 180 171 161 165 183 204 212 211 215 219 214 206 218 242 263 268 266 257 239 229 237 283 302 294 299 307 228 223 217 210 203 219 235 245 251 255 254 251 243 241 245 247 245 228 212 208
225 226 212 184 160 133 100 129 152 153 150 167 186 199 202 183 159 148 140 145 150 140 100 85 84 87 256 272 283 293 301 300 293 266 227 208 200 194 191 190 187 183 176 182 192 202 206 218 225 224 213 207 216 234 252 260 262 258 243 218 205 206 225 243 253 256 250 234 221 212 210 220 235 251 263 258 252 246 240 238 244 249 249 232 218 213
211 207 173 157 151 159 180 195 189 177 172 184 192 194 185 181 166 151 140 140 136 130 116 104 94 87 274 268 275 287 298 307 314 315 298 236 216 206 196 192 191 190 190 197 200 201 201 215 221 217 198 196 210 225 240 249 256 257 250 231 221 220 228 236 242 249 261 265 260 250 229 218 231 266 276 266 255 242 233 232 239 246 250 238 225 219
194 197 197 184 187 197 207 198 188 177 182 197 203 199 177 168 163 156 148 140 138 139 140 125 130 156 223 246 264 286 302 310 316 322 329 321 295 241 205 198 195 195 199 208 210 209 207 207 199 184 165 190 215 227 231 233 242 251 254 243 237 237 247 251 250 249 251 260 264 261 240 183 176 241 262 264 259 250 238 229 229 233 239 234 228 222
207 208 210 204 204 207 212 194 179 177 191 207 210 203 172 153 153 157 154 146 142 138 136 130 153 184 210 218 219 217 246 282 297 308 317 327 339 345 287 211 203 200 199 208 215 219 223 212 193 176 173 200 228 238 235 225 227 234 244 242 241 242 251 252 248 240 232 243 251 253 233 136 226 255 259 264 265 260 250 237 231 228 228 226 225 224
209 209 208 202 201 204 208 192 184 186 198 208 212 205 180 167 169 171 166 161 154 148 145 152 180 206 221 222 214 204 204 221 239 259 277 290 315 337 5 168 185 193 199 208 218 225 230 220 206 195 193 211 230 243 242 227 222 223 230 232 235 241 251 253 249 238 225 233 236 233 213 224 241 253 266 277 277 272 263 256 246 238 231 225 222 222
206 207 205 200 202 206 208 196 192 195 204 208 209 206 195 195 193 190 174 168 164 166 172 183 198 212 227 231 227 220 218 222 224 227 236 248 267 299 117 147 157 167 178 198 215 225 230 226 220 216 215 220 230 240 248 238 228 222 222 224 228 236 249 255 253 244 231 233 229 223 208 218 224 229 244 266 273 273 270 267 259 251 241 229 222 221
207 207 205 202 206 212 212 202 200 202 209 209 208 204 196 202 203 196 178 169 172 181 192 198 205 215 228 232 229 223 218 219 222 225 229 224 211 163 143 152 156 159 166 183 200 215 226 234 231 226 221 220 223 229 241 241 236 228 226 228 227 231 241 252 254 248 236 235 231 223 219 227 225 220 217 246 263 271 273 268 261 255 249 240 231 228
212 211 208 209 213 217 217 210 207 209 213 212 210 206 198 195 196 195 184 181 189 198 206 207 211 218 231 235 233 225 216 214 216 221 223 206 180 161 152 154 157 160 162 173 186 200 235 273 271 254 235 222 218 217 225 229 230 230 236 233 226 221 228 242 248 249 243 237 230 223 221 231 232 226 215 230 253 267 273 266 260 257 257 256 248 243